Location: Moscow
(38.8570°N, 84.2291°W)
Time: 04:45:49
(UTC+00:00)

ARIANE 6 FM1 Upper Stage - Visible Passes

Search period start: 18 January 2026 00:00
Search period end: 28 January 2026 00:00
Orbit: 522 x 610 km, 62.0° (Epoch: 17 January)

Date Brightness Start Highest point End Pass type
(mag) Time Alt. Az. Time Alt. Az. Time Alt. Az.
18 Jan 5.4 10:05:14 13° SE 10:05:14 13° SE 10:05:39 10° SE visible
18 Jan 4.9 23:58:36 10° SE 23:58:53 11° SE 23:58:53 11° SE visible
19 Jan 5.5 01:34:31 10° SW 01:34:58 13° SW 01:34:58 13° SW visible
19 Jan 4.2 23:57:15 10° SSE 00:00:00 18° ESE 00:00:00 18° ESE visible
20 Jan 5.3 01:34:58 10° WSW 01:36:05 17° WSW 01:36:05 17° WSW visible
20 Jan 3.6 23:56:39 10° S 00:00:08 27° ESE 00:01:03 25° E visible
21 Jan 5.2 01:35:34 10° WSW 01:37:07 19° W 01:37:07 19° W visible
21 Jan 3.0 23:56:20 10° S 00:00:14 42° ESE 00:02:01 26° ENE visible
22 Jan 5.3 01:36:23 10° W 01:38:04 17° WNW 01:38:04 17° WNW visible
22 Jan 2.5 23:56:17 10° SSW 00:00:22 67° ESE 00:02:52 22° NE visible
23 Jan 5.5 01:37:28 10° WNW 01:38:56 14° NW 01:38:56 14° NW visible
23 Jan 2.7 23:56:25 10° SW 00:00:31 78° NW 00:03:39 16° NNE visible
24 Jan 5.6 01:39:14 10° NW 01:39:42 10° NW 01:39:42 10° NW visible
24 Jan 3.3 23:56:43 10° SW 00:00:42 50° NW 00:04:20 12° NNE visible
25 Jan 4.1 23:57:12 10° WSW 00:00:56 34° NW 00:04:37 10° NNE visible
26 Jan 4.6 23:57:52 10° W 00:01:12 24° NW 00:04:31 10° N visible
